Location: Cormont
(50.5693°N, 1.7416°E)
Time: 03:31:29
(UTC+00:00)

ADEOS Rocket - Pass Details

Date: 21 October 2019
Orbit: 859 x 1306 km, 98.7° (Epoch: 13 November)

Event Time Altitude Azimuth Distance (km) Brightness Sun altitude
Rises 19:39:47 0° 15° (NNE) 4,305 6.4 -27.5°
Reaches altitude 10° 19:42:34 10° 17° (NNE) 3,314 5.8 -27.9°
Maximum altitude 19:50:18 76° 103° (ESE) 1,281 3.3 -29.1°
Enters shadow 19:54:13 31° 184° (S) 1,986 4.4 -29.7°
Exits shadow 19:57:29 10° 189° (S) 3,083 5.5 -30.2°
Sets 19:59:55 0° 191° (S) 3,964 6.1 -30.5°
